Location: Christchurch
(43.5000°S, 172.6000°E)
Time: 03:07:10
(UTC+12:00)

ISS - Visible Passes

Search period start: 09 June 2026 00:00
Search period end: 19 June 2026 00:00
Orbit: 413 x 422 km, 51.6° (Epoch: 7 June)

Date Brightness Start Highest point End Pass type
(mag) Time Alt. Az. Time Alt. Az. Time Alt. Az.
11 Jun -1.2 19:03:27 10° N 19:04:07 13° N 19:04:07 13° N visible
12 Jun -1.4 18:16:43 10° NNE 18:18:04 12° NE 18:18:19 12° NE visible
12 Jun -0.5 19:50:56 10° NW 19:51:16 12° NW 19:51:16 12° NW visible
13 Jun -2.7 19:02:56 10° NW 19:05:22 39° NNW 19:05:22 39° NNW visible
14 Jun -2.6 18:15:09 10° NNW 18:18:11 31° NE 18:19:24 24° E visible
14 Jun -0.6 19:51:36 10° W 19:52:20 15° W 19:52:20 15° W visible
15 Jun -1.9 17:27:43 10° N 17:30:10 19° NE 17:32:39 10° E visible
15 Jun -3.2 19:03:16 10° WNW 19:06:16 57° WSW 19:06:16 57° WSW visible
16 Jun -3.8 18:15:04 10° NW 18:18:26 83° NNE 18:20:09 27° ESE visible
16 Jun -0.5 19:52:34 10° WSW 19:53:04 13° WSW 19:53:04 13° WSW visible
17 Jun -3.2 17:27:00 10° NW 17:30:17 49° NE 17:33:37 10° ESE visible
17 Jun -2.4 19:04:03 10° W 19:06:52 32° SSW 19:06:52 32° SSW visible
18 Jun -3.0 18:15:33 10° W 18:18:50 44° SSW 18:20:37 23° SE visible
18 Jun -0.3 19:53:31 10° WSW 19:53:32 10° WSW 19:53:32 10° WSW visible
